{"data":{"norad_id":48284,"epoch":"2026-09-19T16:43:44.178240Z","epoch_age_seconds":103029,"freshness":"FRESH","line1":"1 48284U 21036J   26262.69703910 -.00001158  00000+0 -25569-4 0  9998","line2":"2 48284  53.1603 253.0060 0001498  80.4242 279.6928 15.31692786298127","mean_motion":15.31692786,"eccentricity":0.0001498,"inclination_deg":53.1603,"raan_deg":253.006,"arg_perigee_deg":80.4242,"mean_anomaly_deg":279.6928,"bstar":-2.5569e-5,"rev_number":29812,"period_min":94.013630746447,"perigee_km":469.73553487338,"apogee_km":471.78746486394,"semimajor_km":6848.8984998687,"source":"CELESTRAK","updated_at":"2026-09-20T09:00:38.928781Z"}}